CW8809 Weather Reports


time (UTC)temp
F
wind
direction
speed
knots
gust
knots
rain 1hr
in
rain 24hr
in
rain mn
in
humidity
%
barometer
mb
20260505085955 50 315 0.0 0.0 0.00 0.02 0.03 77 1020.2
20260505084952 51 337 0.0 0.0 0.00 0.02 0.03 76 1020.2
20260505083919 51 292 0.0 0.0 0.00 0.02 0.03 76 1020.2
20260505082917 51 337 0.0 0.0 0.00 0.02 0.03 75 1019.9
20260505081915 51 292 0.0 0.0 0.00 0.02 0.03 74 1019.9
20260505080913 52 337 0.0 0.0 0.00 0.02 0.03 74 1019.9
20260505075912 52 247 0.0 0.0 0.00 0.02 0.03 73 1019.6
20260505074909 53 292 0.0 0.0 0.00 0.02 0.03 72 1019.6
20260505073908 53 292 0.0 0.0 0.00 0.02 0.03 72 1019.4
20260505072906 54 292 0.0 0.0 0.00 0.02 0.03 71 1019.5
20260505071904 54 270 0.0 0.0 0.00 0.02 0.03 70 1019.5
20260505070902 55 292 0.0 0.0 0.00 0.02 0.03 68 1019.2
20260505065827 55 0 0.0 0.0 0.00 0.02 0.03 67 1019.3
20260505064825 56 315 0.0 0.0 0.00 0.02 0.03 67 1019.0
20260505063752 56 292 0.0 0.0 0.00 0.02 0.03 66 1019.1
20260505062750 57 337 0.0 0.0 0.00 0.02 0.03 65 1019.1
20260505061747 57 247 0.0 0.0 0.00 0.02 0.03 64 1018.8
20260505060640 57 292 0.0 0.0 0.00 0.02 0.03 65 1018.5
20260505055503 58 337 0.0 0.0 0.00 0.02 0.03 64 1018.2
20260505054429 58 247 0.0 0.0 0.00 0.02 0.03 64 1018.2
20260505053427 59 292 0.0 0.0 0.00 0.02 0.03 63 1017.9
20260505052353 59 337 0.0 0.0 0.00 0.02 0.03 62 1018.0
20260505051350 59 292 0.0 0.0 0.00 0.02 0.03 61 1018.0
20260505050318 59 270 0.0 0.0 0.00 0.04 0.03 61 1018.0
20260505041203 60 270 0.0 0.0 0.00 0.04 0.03 61 1017.7
20260505040200 60 270 0.0 0.0 0.00 0.04 0.03 62 1018.0
20260505035159 60 292 0.0 0.0 0.00 0.04 0.03 60 1018.0
20260505034156 60 292 0.0 0.0 0.00 0.04 0.03 60 1018.4
20260505033154 60 270 0.0 0.0 0.00 0.04 0.03 61 1018.3
20260505032152 59 0 0.0 0.0 0.00 0.04 0.03 61 1018.3
20260505031149 59 247 0.0 0.0 0.00 0.04 0.03 61 1018.3
20260505030045 59 292 0.0 0.0 0.00 0.04 0.03 62 1018.6
20260505025043 58 270 0.0 0.0 0.00 0.04 0.03 61 1018.6
20260505024042 58 247 0.0 0.0 0.00 0.04 0.03 62 1018.9
20260505023040 58 270 0.0 0.0 0.00 0.04 0.03 63 1018.9
20260505022038 58 292 0.0 0.0 0.00 0.04 0.03 63 1019.2
20260505021036 58 270 0.0 0.0 0.00 0.04 0.03 64 1019.6
20260505020033 58 247 0.0 0.0 0.02 0.04 0.03 65 1019.5
20260505015032 57 292 0.0 0.0 0.02 0.04 0.03 65 1019.5
20260505014029 57 337 0.0 0.0 0.02 0.04 0.03 65 1019.8
20260505013027 57 337 0.0 0.0 0.02 0.04 0.03 66 1019.5
20260505011954 57 225 0.0 0.0 0.02 0.04 0.03 65 1019.5
20260505010952 57 270 0.0 0.0 0.02 0.04 0.03 67 1019.5
20260505005949 56 315 0.0 0.0 0.00 0.04 0.00 68 1019.5
20260505004947 55 292 0.0 0.0 0.00 0.04 0.00 71 1019.4
20260505003944 55 292 0.0 0.0 0.00 0.04 0.00 70 1019.7
20260505002941 54 0 0.0 0.0 0.00 0.04 0.00 70 1019.7
20260505001939 54 270 0.0 0.0 0.00 0.04 0.00 73 1019.4
20260505000937 54 270 0.0 0.0 0.00 0.04 0.00 73 1019.0
20260504235936 53 315 0.0 0.0 0.00 0.06 0.00 76 1019.0
20260504234933 53 270 0.0 0.0 0.00 0.06 0.00 76 1019.0
20260504233931 53 292 0.0 0.0 0.00 0.06 0.00 77 1019.0
20260504232825 53 0 0.0 0.0 0.00 0.06 0.00 77 1019.0
20260504231752 52 247 0.0 0.0 0.00 0.06 0.00 78 1018.6
20260504230719 52 292 0.0 0.0 0.00 0.06 0.00 77 1018.9
20260504225717 53 292 0.0 0.0 0.00 0.08 0.00 76 1019.0
20260504224715 53 292 0.0 0.0 0.00 0.08 0.00 76 1019.0
20260504223641 52 292 0.0 0.0 0.00 0.08 0.00 78 1019.0
20260504222639 51 315 0.0 0.0 0.00 0.08 0.00 81 1018.9
20260504221637 50 292 0.0 0.0 0.00 0.08 0.00 81 1018.8
20260504220634 49 292 0.0 0.0 0.00 0.08 0.00 83 1018.7
20260504215600 48 292 0.0 0.0 0.00 0.14 0.00 83 1018.3
20260504214558 48 292 0.0 0.0 0.00 0.14 0.00 83 1018.3
20260504213525 48 315 0.0 0.0 0.00 0.14 0.00 83 1018.0
20260504212522 47 315 0.0 0.0 0.00 0.14 0.00 84 1018.0
20260504211450 47 315 0.0 0.0 0.00 0.14 0.00 84 1017.9
20260504210447 46 315 0.0 0.0 0.00 0.14 0.00 84 1017.5
20260504205445 45 337 0.0 0.0 0.00 0.20 0.00 83 1017.5
20260504204443 45 337 0.0 0.0 0.00 0.20 0.00 83 1017.5
20260504203440 45 337 0.0 0.0 0.00 0.20 0.00 83 1017.2
20260504202438 45 315 0.0 0.0 0.00 0.20 0.00 84 1017.2
20260504201403 44 22 0.0 0.0 0.00 0.20 0.00 84 1017.1
20260504200401 44 67 0.0 0.0 0.00 0.20 0.00 84 1016.8
20260504195400 45 67 0.0 0.0 0.00 0.20 0.00 85 1016.9
20260504194358 45 157 0.0 0.0 0.00 0.20 0.00 85 1016.6
20260504193325 46 292 0.0 0.0 0.00 0.20 0.00 84 1016.3
20260504192251 46 292 0.0 0.0 0.00 0.20 0.00 84 1016.4
20260504191249 46 315 0.0 0.0 0.00 0.20 0.00 84 1016.4
20260504190247 46 292 0.0 0.0 0.00 0.26 0.00 84 1016.4
20260504185213 47 315 0.0 0.0 0.00 0.26 0.00 84 1016.1
20260504184211 47 292 0.0 0.0 0.00 0.26 0.00 84 1016.1
20260504183209 47 315 0.0 0.0 0.00 0.26 0.00 84 1016.2
20260504182207 47 292 0.0 0.0 0.00 0.26 0.00 84 1015.9
20260504181205 47 247 0.0 0.0 0.00 0.26 0.00 84 1015.9
20260504180131 48 292 0.0 0.0 0.00 0.31 0.00 85 1015.9
20260504175129 48 270 0.0 0.0 0.00 0.31 0.00 85 1015.9
20260504174126 48 292 0.0 0.0 0.00 0.31 0.00 85 1015.9
20260504173124 48 292 0.0 0.0 0.00 0.31 0.00 85 1015.9
20260504172051 48 292 0.0 0.0 0.00 0.31 0.00 85 1015.9
20260504171049 48 315 0.0 0.0 0.00 0.31 0.00 85 1016.0
20260504150817 47 292 0.0 0.0 0.00 0.33 0.00 84 1016.9
20260504140702 48 292 0.0 0.0 0.00 0.41 0.00 78 1016.9
20260504130650 48 270 0.0 0.0 0.00 0.41 0.40 74 1016.9
20260504110557 50 292 0.0 0.0 0.00 0.43 0.40 82 1017.0
20260504100235 50 292 0.0 0.0 0.00 0.47 0.40 84 1017.0